DW7831 Weather Reports


time (UTC)temp
C
wind
direction
speed
KPH
gust
KPH
rain 1hr
cm
rain 24hr
cm
rain mn
cm
humidity
%
barometer
mb
20260902123035 18 63 0.0 0.0 0.00 0.00 0.00 100 1018.9
20260902121528 18 63 0.0 0.0 0.00 0.00 0.00 100 1018.7
20260902120030 18 63 3.2 0.0 0.00 0.00 0.00 100 1018.5
20260902114519 18 63 0.0 0.0 0.00 0.00 0.00 100 1018.4
20260902113015 -17 0.0 0.0 0.00 0.00 0.00 1018.5
20260902111532 -17 0.0 0.0 0.00 0.00 0.00 1018.5
20260902110019 -17 0.0 0.0 0.00 0.00 0.00 1018.9
20260902104502 -17 0.0 0.0 0.00 0.00 0.00 1019.3
20260902103057 17 63 1.6 0.0 0.00 0.00 0.00 100 1019.0
20260902101553 17 61 1.6 0.0 0.00 0.00 0.00 100 1019.0
20260902100049 17 61 0.0 0.0 0.00 0.00 0.00 100 1018.8
20260902094551 17 60 0.0 0.0 0.00 0.00 0.00 100 1018.7
20260902093044 17 60 0.0 0.0 0.00 0.00 0.00 100 1018.7
20260902091539 17 60 0.0 0.0 0.00 0.00 0.00 100 1018.6
20260902090034 17 61 1.6 0.0 0.00 0.00 0.00 100 1018.5
20260902084539 17 61 3.2 0.0 0.00 0.00 0.00 100 1018.2
20260902083027 17 58 1.6 0.0 0.00 0.00 0.00 100 1018.2
20260902081522 17 60 3.2 0.0 0.00 0.00 0.00 100 1017.9
20260902080019 17 65 1.6 0.0 0.00 0.00 0.00 100 1018.0
20260902074516 18 64 4.8 0.0 0.00 0.00 0.00 100 1017.6
20260902073011 18 71 4.8 0.0 0.00 0.00 0.00 100 1017.9
20260902071507 18 72 3.2 0.0 0.00 0.00 0.00 100 1018.1
20260902070003 18 71 3.2 0.0 0.00 0.00 0.00 100 1018.0
20260902064500 18 62 1.6 0.0 0.00 0.00 0.00 100 1018.1
20260902063103 18 66 1.6 0.0 0.00 0.00 0.00 100 1018.2
20260902061610 18 62 0.0 0.0 0.00 0.00 0.00 100 1018.2
20260902060050 18 62 0.0 0.0 0.00 0.00 0.00 100 1018.2
20260902054548 18 62 0.0 0.0 0.00 0.00 0.00 100 1018.1
20260902053041 18 62 0.0 0.0 0.00 0.00 0.00 100 1018.1
20260902051536 18 62 0.0 0.0 0.00 0.00 0.00 100 1018.1
20260902050032 18 60 1.6 0.0 0.00 0.00 0.00 100 1017.9
20260902044529 18 67 0.0 0.0 0.00 0.00 0.00 100 1017.6
20260902043024 18 67 0.0 0.0 0.00 0.00 0.00 100 1017.5
20260902041520 18 74 3.2 0.0 0.00 0.00 0.00 100 1017.5
20260902040016 18 60 3.2 0.0 0.00 0.00 0.00 100 1017.3
20260902034513 18 71 3.2 0.0 0.00 0.00 0.28 100 1017.1
20260902033012 18 73 1.6 0.0 0.00 0.00 0.28 100 1017.1
20260902031505 18 70 1.6 0.0 0.00 0.00 0.28 100 1017.1
20260902023100 18 53 3.2 0.0 0.00 0.00 0.28 100 1017.3
20260902021554 18 57 1.6 0.0 0.00 0.00 0.28 100 1017.4
20260902020046 19 68 1.6 0.0 0.00 0.00 0.28 100 1017.3
20260902013038 19 59 3.2 0.0 0.00 0.00 0.28 100 1017.1
20260902011534 19 59 3.2 0.0 0.00 0.00 0.28 100 1016.9
20260902010041 19 42 0.0 0.0 0.00 0.00 0.28 100 1016.8
20260902003021 19 34 0.0 0.0 0.00 0.00 0.28 100 1016.2
20260902001517 19 33 1.6 0.0 0.00 0.00 0.28 100 1016.2
20260902000022 19 61 1.6 0.0 0.00 0.00 0.28 100 1016.0
20260901233010 19 63 4.8 0.0 0.00 0.00 0.28 100 1016.2
20260901231502 20 27 0.0 0.0 0.00 0.00 0.28 100 1016.2
20260901230058 20 20 1.6 0.0 0.00 0.00 0.28 100 1015.8
20260901223051 20 31 1.6 0.0 0.00 0.00 0.28 100 1016.0
20260901221615 20 41 0.0 0.0 0.00 0.00 0.28 100 1016.1
20260901220042 20 45 3.2 0.0 0.00 0.00 0.28 100 1016.3
20260901213058 20 57 1.6 0.0 0.00 0.00 0.28 100 1015.5
20260901211541 20 23 1.6 0.0 0.00 0.00 0.28 100 1015.7
20260901210037 20 43 1.6 0.0 0.00 0.00 0.28 100 1015.7
20260901203032 20 53 1.6 0.0 0.00 0.00 0.28 100 1015.4
20260901201516 20 60 0.0 0.0 0.00 0.00 0.25 100 1015.5
20260901200025 20 59 0.0 0.0 0.00 0.00 0.23 100 1015.4
20260901193008 21 77 3.2 0.0 0.00 0.00 0.23 100 1015.3
20260901191503 22 189 0.0 0.0 0.00 0.00 0.23 100 1015.2
20260901190059 22 202 0.0 0.0 0.00 0.00 0.23 100 1015.1
20260901183051 22 202 0.0 0.0 0.00 0.00 0.20 100 1015.0
20260901181543 23 202 0.0 0.0 0.00 0.00 0.18 100 1014.9
20260901180039 23 202 0.0 0.0 0.00 0.00 0.18 5 1014.9
20260901173034 23 202 1.6 0.0 0.00 0.00 0.18 8 1014.7
20260901171530 23 213 1.6 0.0 0.00 0.00 0.18 6 1014.6
20260901170023 23 199 3.2 0.0 0.00 0.00 0.18 100 1014.6
20260901163017 22 203 3.2 0.0 0.00 0.00 0.18 100 1014.7
20260901161513 22 208 3.2 0.0 0.00 0.00 0.18 100 1014.9
20260901160008 22 211 3.2 0.0 0.00 0.00 0.18 100 1015.0
20260901153109 22 213 1.6 0.0 0.00 0.00 0.18 100 1015.3
20260901151556 21 212 0.0 0.0 0.00 0.00 0.18 100 1015.6
20260901150051 21 212 0.0 0.0 0.00 0.00 0.18 100 1015.3
20260901144647 20 212 0.0 0.0 0.00 0.00 0.18 100 1015.3
20260901143052 20 212 0.0 0.0 0.00 0.00 0.18 100 1015.6
20260901141553 20 212 0.0 0.0 0.00 0.00 0.18 100 1015.7
20260901140042 20 212 0.0 0.0 0.00 0.00 0.18 100 1015.6
20260901134635 20 212 1.6 0.0 0.00 0.00 0.18 100 1015.5
20260901133039 20 202 0.0 0.0 0.00 0.00 0.18 100 1015.5
20260901131529 20 202 0.0 0.0 0.00 0.00 0.18 100 1015.7
20260901130026 20 200 1.6 0.0 0.00 0.00 0.18 100 1015.8
20260901124624 20 199 0.0 0.0 0.00 0.00 0.18 100 1015.8